User: anonymous   Login
Location: Corralito
(10.2667°N, 66.9500°W)
Time: 13:51:27
(UTC+00:00)
Language:

NOAA 6 - Orbit

View from above orbital plane
View from above orbital plane
View from above satellite
View from above satellite

Ground track
Ground track

The orbit data is extracted from the following two-line orbital elements,

1 11416U 79057A   23271.89233854  .00000591  00000-0  22689-3 0  9993
2 11416  98.6499 288.2429 0009489 321.1129  38.9372 14.34171624308651
Epoch (UTC): 28 September 2023 21:24:58
Eccentricity: 0.0009489
inclination: 98.6499°
perigee height: 771 km
apogee height: 784 km
right ascension of ascending node: 288.2429°
argument of perigee: 321.1129°
revolutions per day: 14.34171624
mean anomaly at epoch: 38.9372°
orbit number at epoch: 30865

The dashed part of the orbit path shows where the satellite is in the earth's shadow,  

DLR